KD7TTL Weather Reports


Display with metric or nautical units.
time (UTC)temp
F
wind
direction
speed
MPH
gust
MPH
rain 1hr
in
rain 24hr
in
rain mn
in
humidity
%
barometer
mb
20260506215504 59 126 3.0 10.0 0.00 0.00 0.00 75 1022.0
20260506215006 60 68 1.0 8.0 0.00 0.00 0.00 78 1021.9
20260506214514 59 265 2.0 4.0 0.00 0.00 0.00 80 1021.8
20260506214004 58 162 1.0 6.0 0.00 0.00 0.00 79 1021.8
20260506213505 58 151 2.0 6.0 0.00 0.00 0.00 79 1021.9
20260506213012 58 162 1.0 4.0 0.00 0.00 0.00 81 1021.9
20260506212504 58 137 1.0 4.0 0.00 0.00 0.00 80 1021.9
20260506212009 58 120 0.0 4.0 0.00 0.00 0.00 82 1021.9
20260506211515 57 41 1.0 4.0 0.00 0.00 0.00 81 1022.0
20260506211006 57 129 2.0 4.0 0.00 0.00 0.00 81 1022.0
20260506210507 57 153 0.0 5.0 0.00 0.00 0.00 83 1021.9
20260506210036 57 196 1.0 8.0 0.00 0.00 0.00 83 1021.9
20260506205503 56 160 4.0 8.0 0.00 0.00 0.00 83 1021.9
20260506205009 56 153 2.0 8.0 0.00 0.00 0.00 83 1022.0
20260506204518 56 140 3.0 8.0 0.00 0.00 0.00 83 1021.9
20260506203509 57 128 4.0 8.0 0.00 0.00 0.00 83 1021.8
20260506200004 55 134 2.0 6.0 0.00 0.00 0.00 87 1021.9
20260506195504 55 137 2.0 6.0 0.00 0.00 0.00 87 1021.9
20260506195005 55 153 1.0 5.0 0.00 0.00 0.00 87 1021.8
20260506194506 55 139 2.0 8.0 0.00 0.00 0.00 87 1021.7
20260506194002 55 165 1.0 8.0 0.00 0.00 0.00 87 1021.7
20260506193504 55 138 2.0 7.0 0.00 0.00 0.00 87 1021.6
20260506193003 55 239 1.0 5.0 0.00 0.00 0.00 87 1021.6
20260506192502 55 93 2.0 7.0 0.00 0.00 0.00 86 1021.7
20260506192002 55 76 2.0 7.0 0.00 0.00 0.00 86 1021.6
20260506191510 56 123 1.0 4.0 0.00 0.00 0.00 87 1021.6
20260506191004 56 129 0.0 4.0 0.00 0.00 0.00 87 1021.6
20260506190507 55 51 0.0 7.0 0.00 0.00 0.00 87 1021.6
20260506190005 55 158 2.0 7.0 0.00 0.00 0.00 86 1021.5
20260506185505 55 156 2.0 8.0 0.00 0.00 0.00 87 1021.5
20260506185003 55 144 4.0 8.0 0.00 0.00 0.00 87 1021.4
20260506184505 55 178 2.0 6.0 0.00 0.00 0.00 87 1021.5
20260506184003 55 153 1.0 6.0 0.00 0.00 0.00 89 1021.5
20260506183503 55 148 3.0 5.0 0.00 0.00 0.00 88 1021.4
20260506183004 55 150 2.0 5.0 0.00 0.00 0.00 87 1021.3
20260506182506 55 140 1.0 7.0 0.00 0.00 0.00 88 1021.3
20260506182003 55 153 3.0 8.0 0.00 0.00 0.00 87 1021.2
20260506181505 55 144 5.0 8.0 0.00 0.00 0.00 87 1021.2
20260506181003 55 129 2.0 8.0 0.00 0.00 0.00 88 1021.2
20260506180503 55 205 3.0 8.0 0.00 0.00 0.00 88 1021.2
20260506180003 55 205 1.0 5.0 0.00 0.00 0.00 89 1021.1
20260506175502 55 129 1.0 5.0 0.00 0.00 0.00 89 1021.1
20260506175003 55 153 0.0 5.0 0.00 0.00 0.00 88 1021.3
20260506174503 55 205 1.0 3.0 0.00 0.00 0.00 89 1021.1
20260506174004 55 221 0.0 5.0 0.00 0.00 0.00 89 1020.9
20260506173506 55 51 1.0 7.0 0.00 0.00 0.00 89 1020.8
20260506173004 55 165 3.0 7.0 0.00 0.00 0.00 88 1020.7
20260506172512 55 153 2.0 6.0 0.00 0.00 0.00 89 1020.8
20260506172012 55 212 2.0 5.0 0.00 0.00 0.00 90 1020.9
20260506171532 55 243 1.0 4.0 0.00 0.00 0.00 90 1021.0
20260506171013 54 165 1.0 4.0 0.00 0.00 0.00 90 1021.0
20260506170509 54 162 0.0 4.0 0.00 0.00 0.00 90 1021.0
20260506170030 54 229 1.0 3.0 0.00 0.00 0.00 90 1020.9
20260506165507 54 178 1.0 3.0 0.00 0.00 0.00 91 1020.8
20260506165009 54 93 0.0 2.0 0.00 0.00 0.00 91 1020.8
20260506164542 54 162 0.0 4.0 0.00 0.00 0.00 91 1021.0
20260506164006 53 265 0.0 4.0 0.00 0.00 0.00 91 1021.2
20260506163510 53 126 0.0 4.0 0.00 0.00 0.00 91 1021.1
20260506163024 53 93 0.0 4.0 0.00 0.00 0.00 91 1021.1
20260506162510 53 158 1.0 4.0 0.00 0.00 0.00 91 1021.0
20260506162008 53 51 0.0 5.0 0.00 0.00 0.00 91 1021.0
20260506161526 53 93 0.0 5.0 0.00 0.00 0.00 91 1021.0
20260506161010 53 139 2.0 5.0 0.00 0.00 0.00 91 1020.9
20260506160510 53 153 2.0 6.0 0.00 0.00 0.00 91 1021.0
20260506160024 53 108 1.0 6.0 0.00 0.00 0.00 91 1021.0
20260506155508 53 178 2.0 6.0 0.00 0.00 0.00 92 1020.9
20260506155013 53 186 2.0 6.0 0.00 0.00 0.00 92 1020.8
20260506121009 51 93 0.0 1.0 0.00 0.00 0.00 95 1019.9
20260506120511 51 51 0.0 3.0 0.00 0.00 0.00 95 1019.9
20260506120048 51 93 0.0 3.0 0.00 0.00 0.00 95 1019.8
20260506115508 50 93 0.0 1.0 0.00 0.00 0.00 95 1019.8
20260506115009 50 137 0.0 0.0 0.00 0.00 0.00 95 1019.7
20260506114531 50 51 0.0 0.0 0.00 0.00 0.00 95 1019.8
20260506114012 50 93 0.0 0.0 0.00 0.00 0.00 95 1019.7
20260506113510 50 51 0.0 0.0 0.00 0.00 0.00 95 1019.6
20260506113025 50 93 0.0 0.0 0.00 0.00 0.00 95 1019.6
20260506112510 50 93 0.0 0.0 0.00 0.00 0.00 95 1019.5
20260506112013 50 9 0.0 0.0 0.00 0.00 0.00 95 1019.4
20260506111527 50 93 0.0 0.0 0.00 0.00 0.00 95 1019.2
20260506111010 50 93 0.0 1.0 0.00 0.00 0.00 95 1019.2
20260506110510 50 178 0.0 1.0 0.00 0.00 0.00 95 1019.1
20260506110006 50 137 0.0 1.0 0.00 0.00 0.00 94 1019.2
20260506105505 49 137 0.0 1.0 0.00 0.00 0.00 94 1019.1
20260506105002 49 93 0.0 0.0 0.00 0.00 0.00 94 1019.1
20260506104503 49 93 0.0 0.0 0.00 0.00 0.00 94 1018.8
20260506104006 49 178 0.0 0.0 0.00 0.00 0.00 94 1018.7
20260506103502 49 93 0.0 0.0 0.00 0.00 0.00 94 1018.7
20260506103013 49 137 0.0 1.0 0.00 0.00 0.00 94 1018.8
20260506102502 49 137 0.0 1.0 0.00 0.00 0.00 94 1018.8
20260506102003 49 137 0.0 0.0 0.00 0.00 0.00 94 1018.8
20260506101505 49 178 0.0 0.0 0.00 0.00 0.00 94 1018.8
20260506101002 49 93 0.0 0.0 0.00 0.00 0.00 94 1018.8
20260506100502 49 93 0.0 0.0 0.00 0.00 0.00 94 1018.8
20260506100005 49 93 0.0 0.0 0.00 0.00 0.00 93 1018.7
20260506095503 49 51 0.0 0.0 0.00 0.00 0.00 93 1018.7
20260506095004 48 51 0.0 0.0 0.00 0.00 0.00 93 1018.7
20260506094503 49 221 0.0 0.0 0.00 0.00 0.00 93 1018.6
20260506094003 49 51 0.0 0.0 0.00 0.00 0.00 93 1018.6
20260506093503 49 9 0.0 0.0 0.00 0.00 0.00 93 1018.6
20260506093016 49 51 0.0 0.0 0.00 0.00 0.00 93 1018.7
20260506092509 49 93 0.0 0.0 0.00 0.00 0.00 93 1018.7
20260506092014 49 51 0.0 0.0 0.00 0.00 0.00 93 1018.7
20260506091525 49 93 0.0 0.0 0.00 0.00 0.00 93 1018.6
20260506091011 49 51 0.0 0.0 0.00 0.00 0.00 93 1018.6
20260506090509 49 51 0.0 1.0 0.00 0.00 0.00 92 1018.6
20260506090023 49 325 0.0 1.0 0.00 0.00 0.00 92 1018.5
20260506085508 49 9 0.0 1.0 0.00 0.00 0.00 93 1018.4
20260506085009 49 9 0.0 1.0 0.00 0.00 0.00 92 1018.3
20260506084558 49 51 0.0 1.0 0.00 0.00 0.00 92 1018.3
20260506084017 49 9 0.0 1.0 0.00 0.00 0.00 92 1018.2
20260506083511 49 9 0.0 1.0 0.00 0.00 0.00 92 1018.1
20260506083026 49 51 0.0 1.0 0.00 0.00 0.00 92 1018.2
20260506082507 49 51 0.0 1.0 0.00 0.00 0.00 92 1018.2
20260506082011 49 68 0.0 1.0 0.00 0.00 0.00 92 1018.2
20260506081534 49 51 0.0 1.0 0.00 0.00 0.00 92 1018.1
20260506081011 49 51 0.0 1.0 0.00 0.00 0.00 91 1018.1
20260506080507 49 51 0.0 1.0 0.00 0.00 0.00 91 1018.1
20260506073510 50 51 0.0 2.0 0.00 0.00 0.00 91 1017.7
20260506073027 50 68 0.0 2.0 0.00 0.00 0.00 91 1017.7
20260506072509 50 51 0.0 1.0 0.00 0.00 0.00 91 1017.7
20260506072013 50 51 0.0 1.0 0.00 0.00 0.00 91 1017.7
20260506071529 50 51 0.0 1.0 0.00 0.00 0.00 91 1017.6
20260506071009 50 34 0.0 1.0 0.00 0.00 0.00 91 1017.6
20260506070508 50 9 0.0 1.0 0.00 0.00 0.00 91 1017.6
20260506062512 51 9 0.0 1.0 0.00 0.00 0.00 90 1017.6
20260506062009 51 51 0.0 1.0 0.00 0.00 0.00 90 1017.6
20260506061526 51 51 0.0 1.0 0.00 0.00 0.00 90 1017.5
20260506061010 52 68 0.0 1.0 0.00 0.00 0.00 90 1017.5
20260506060510 52 51 0.0 1.0 0.00 0.00 0.00 90 1017.5
20260506051013 53 265 0.0 1.0 0.00 0.00 0.00 88 1017.1
20260506050510 54 51 0.0 1.0 0.00 0.00 0.00 87 1016.9
20260506045010 54 67 0.0 1.0 0.00 0.00 0.00 87 1016.8
20260506044523 54 9 0.0 1.0 0.00 0.00 0.00 87 1016.8
20260506044004 55 51 0.0 1.0 0.00 0.00 0.00 86 1016.8
20260506043502 55 51 0.0 1.0 0.00 0.00 0.00 86 1016.8
20260506043004 55 51 0.0 1.0 0.00 0.00 0.00 84 1016.7
20260506042504 56 51 0.0 1.0 0.00 0.00 0.00 84 1016.7
20260506042003 56 51 0.0 1.0 0.00 0.00 0.00 84 1016.7
20260506041504 56 51 0.0 0.0 0.00 0.00 0.00 84 1016.7
20260506041001 56 9 0.0 1.0 0.00 0.00 0.00 83 1016.6
20260506040502 56 51 0.0 1.0 0.00 0.00 0.00 83 1016.6
20260506040006 57 51 0.0 1.0 0.00 0.00 0.00 82 1016.5
20260506035503 57 51 0.0 1.0 0.00 0.00 0.00 82 1016.5
20260506035003 57 93 0.0 1.0 0.00 0.00 0.00 82 1016.5
20260506034504 58 9 0.0 1.0 0.00 0.00 0.00 82 1016.5
20260506034003 58 51 0.0 1.0 0.00 0.00 0.00 81 1016.4
20260506033504 58 9 0.0 1.0 0.00 0.00 0.00 80 1016.4
20260506033007 59 93 0.0 1.0 0.00 0.00 0.00 81 1016.4
20260506032503 59 51 0.0 1.0 0.00 0.00 0.00 79 1016.4
20260506032003 59 51 0.0 1.0 0.00 0.00 0.00 79 1016.4
20260506031504 60 51 0.0 1.0 0.00 0.00 0.00 79 1016.3
20260506031001 60 51 0.0 1.0 0.00 0.00 0.00 78 1016.4
20260506030501 60 34 0.0 1.0 0.00 0.00 0.00 78 1016.3
20260506030005 60 34 0.0 1.0 0.00 0.00 0.00 78 1016.3
20260506025502 60 9 0.0 1.0 0.00 0.00 0.00 77 1016.4
20260506025005 61 51 0.0 1.0 0.00 0.00 0.00 77 1016.4
20260506024505 61 265 0.0 1.0 0.00 0.00 0.00 77 1016.4
20260506024004 61 93 0.0 1.0 0.00 0.00 0.00 76 1016.3
20260506023504 61 309 0.0 1.0 0.00 0.00 0.00 77 1016.3
20260506023003 61 51 0.0 1.0 0.00 0.00 0.00 76 1016.3
20260506022503 61 9 0.0 1.0 0.00 0.00 0.00 75 1016.3
20260506022003 61 93 0.0 1.0 0.00 0.00 0.00 75 1016.3
20260506021505 61 265 0.0 4.0 0.00 0.00 0.00 75 1016.3
20260506021004 61 178 0.0 4.0 0.00 0.00 0.00 74 1016.4
20260506020503 61 144 1.0 2.0 0.00 0.00 0.00 75 1016.3
20260506020003 61 120 0.0 4.0 0.00 0.00 0.00 74 1016.3
20260506015503 62 137 0.0 4.0 0.00 0.00 0.00 75 1016.2
20260506015003 62 178 1.0 4.0 0.00 0.00 0.00 75 1016.2
20260506014504 62 9 0.0 4.0 0.00 0.00 0.00 74 1016.3
20260506014003 62 171 1.0 4.0 0.00 0.00 0.00 74 1016.2
20260506013504 62 120 0.0 4.0 0.00 0.00 0.00 75 1016.2
20260506013010 62 93 1.0 5.0 0.00 0.00 0.00 73 1016.2
20260506012504 62 178 1.0 4.0 0.00 0.00 0.00 74 1016.2
20260506012004 62 170 1.0 4.0 0.00 0.00 0.00 73 1016.2
20260506011504 62 51 0.0 4.0 0.00 0.00 0.00 74 1016.2
20260506011003 62 165 1.0 8.0 0.00 0.00 0.00 74 1016.3
20260506010504 62 151 3.0 8.0 0.00 0.00 0.00 73 1016.3
20260506010012 62 158 0.0 3.0 0.00 0.00 0.00 74 1016.4
20260506005504 62 360 1.0 4.0 0.00 0.00 0.00 73 1016.4
20260506005001 62 193 1.0 8.0 0.00 0.00 0.00 73 1016.3
20260506004511 62 169 1.0 8.0 0.00 0.00 0.00 73 1016.4
20260506004006 62 171 0.0 8.0 0.00 0.00 0.00 72 1016.4
20260506003505 62 265 0.0 8.0 0.00 0.00 0.00 74 1016.4
20260506003010 62 169 2.0 6.0 0.00 0.00 0.00 73 1016.4
20260506002503 62 148 1.0 5.0 0.00 0.00 0.00 74 1016.4
20260506002002 62 22 0.0 4.0 0.00 0.00 0.00 72 1016.5
20260506001513 62 165 1.0 4.0 0.00 0.00 0.00 73 1016.5
20260506001002 62 93 0.0 6.0 0.00 0.00 0.00 74 1016.6
20260506000504 62 158 2.0 6.0 0.00 0.00 0.00 74 1016.7
20260506000012 61 325 1.0 5.0 0.00 0.00 0.00 76 1016.7
20260505235503 61 178 2.0 5.0 0.00 0.00 0.00 77 1016.8
20260505235003 61 105 1.0 5.0 0.00 0.00 0.00 76 1016.8
20260505234515 61 108 3.0 5.0 0.00 0.00 0.00 74 1016.8
20260505234003 61 178 0.0 6.0 0.00 0.00 0.00 75 1016.9
20260505233505 61 146 1.0 6.0 0.00 0.00 0.00 76 1016.9
20260505233010 61 137 1.0 5.0 0.00 0.00 0.00 75 1017.0
20260505232503 61 153 2.0 5.0 0.00 0.00 0.00 75 1017.0
20260505232002 61 47 1.0 5.0 0.00 0.00 0.00 76 1017.1
20260505231522 60 72 0.0 6.0 0.00 0.00 0.00 75 1017.0
20260505231008 61 146 3.0 8.0 0.00 0.00 0.00 76 1017.0
20260505230503 61 171 1.0 8.0 0.00 0.00 0.00 77 1017.1
20260505230021 61 165 2.0 6.0 0.00 0.00 0.00 76 1017.1
20260505225504 61 51 1.0 5.0 0.00 0.00 0.00 79 1017.2
20260505225004 60 93 1.0 5.0 0.00 0.00 0.00 79 1017.1
20260505224515 60 128 1.0 4.0 0.00 0.00 0.00 78 1017.2
20260505224005 60 115 1.0 4.0 0.00 0.00 0.00 77 1017.2
20260505223507 60 126 0.0 4.0 0.00 0.00 0.00 78 1017.2
20260505223011 60 129 1.0 5.0 0.00 0.00 0.00 77 1017.2
20260505222502 60 146 3.0 5.0 0.00 0.00 0.00 78 1017.3
20260505222003 60 126 1.0 5.0 0.00 0.00 0.00 78 1017.3
20260505221510 60 120 2.0 4.0 0.00 0.00 0.00 77 1017.3
20260505221002 60 153 1.0 2.0 0.00 0.00 0.00 79 1017.3
20260505220503 60 162 1.0 4.0 0.00 0.00 0.00 80 1017.4
20260505220017 60 178 1.0 4.0 0.00 0.00 0.00 80 1017.4